Stillwater, OK

8:59 AM CST on December 07, 2016 (GMT -0600)
Stillwater Municipal

Weather History for KSWO - December, 2012

Change the Weather History Date:

Saturday, December 22, 2012

  Actual Average Record
Temperature  
Mean Temperature 44 °F -  
Max Temperature 62 °F 46 °F 68 °F (1996)
Min Temperature 27 °F 24 °F 7 °F (1998)
Degree Days  
Heating Degree Days 20    
Moisture  
Dew Point 12 °F    
Average Humidity 31    
Maximum Humidity 56    
Minimum Humidity 12    
Precipitation  
Precipitation 0.00 in - - ()
Sea Level Pressure  
Sea Level Pressure 30.06 in    
Wind  
Wind Speed 6 mph (SSE)    
Max Wind Speed 20 mph    
Max Gust Speed 24 mph    
Visibility 10 miles    
Events      
Averages and records for this station are not official NWS values.
T = Trace of Precipitation, MM = Missing Value Source: NWS Daily Summary

Daily Weather History Graph

Daily Weather History Graph

Search for Another Location

Airport or City:

Trip Planner

Search our weather history database for the weather conditions in past years. The results will help you decide how hot, cold, wet, or windy it might be!

Date:

Astronomy

Dec. 22, 2012 Rise Set
Actual Time 7:36 AM CST 5:18 PM CST
Civil Twilight 7:07 AM CST 5:46 PM CST
Nautical Twilight 6:35 AM CST 6:19 PM CST
Astronomical Twilight 6:04 AM CST 6:50 PM CST
Moon 1:31 PM CST (12/22) 2:28 AM CST (12/22)
Length of Visible Light 10h 39m
Length of Day
9h 41m
Waxing Gibbous, 74% of the Moon is Illuminated
Dec 22
Waxing Gibbous
Dec 28
Full
Jan 4
Last Quarter
Jan 11
New
Jan 18
First Quarter

Hourly Weather History & Observations

Time (CST) Temp. Windchill Dew Point Humidity Pressure Visibility Wind Dir Wind Speed Gust Speed Precip Events Conditions
12:53 AM 36.0 °F 32.1 °F 10.9 °F 36% 30.18 in 10.0 mi SE 4.6 mph - N/A   Clear
1:53 AM 33.1 °F - 12.0 °F 42% 30.17 in 10.0 mi Calm Calm - N/A   Clear
2:53 AM 35.1 °F - 12.0 °F 39% 30.17 in 10.0 mi Calm Calm - N/A   Clear
3:53 AM 27.0 °F 20.5 °F 12.0 °F 53% 30.15 in 10.0 mi SSE 5.8 mph - N/A   Clear
4:53 AM 27.0 °F 20.5 °F 12.9 °F 56% 30.14 in 10.0 mi SSE 5.8 mph - N/A   Clear
5:53 AM 28.0 °F 21.7 °F 10.9 °F 49% 30.13 in 10.0 mi SE 5.8 mph - N/A   Clear
6:53 AM 28.9 °F 22.8 °F 10.9 °F 47% 30.13 in 10.0 mi SE 5.8 mph - N/A   Clear
7:53 AM 30.9 °F 27.5 °F 12.0 °F 46% 30.13 in 10.0 mi ESE 3.5 mph - N/A   Clear
8:53 AM 36.0 °F 32.1 °F 14.0 °F 41% 30.13 in 10.0 mi SSE 4.6 mph - N/A   Clear
9:53 AM 48.0 °F - 12.9 °F 24% 30.12 in 10.0 mi South 6.9 mph - N/A   Clear
10:53 AM 55.9 °F - 9.0 °F 15% 30.10 in 10.0 mi SSW 11.5 mph - N/A   Clear
11:53 AM 59.0 °F - 9.0 °F 14% 30.06 in 10.0 mi SSW 17.3 mph 21.9 mph N/A   Clear
12:53 PM 61.0 °F - 10.0 °F 13% 30.02 in 10.0 mi SSW 17.3 mph - N/A   Clear
2:53 PM 62.1 °F - 9.0 °F 12% 29.98 in 10.0 mi South 19.6 mph - N/A   Clear
3:53 PM 61.0 °F - 9.0 °F 13% 29.98 in 10.0 mi South 18.4 mph 24.2 mph N/A   Clear
4:53 PM 55.0 °F - 10.0 °F 17% 29.97 in 10.0 mi South 11.5 mph - N/A   Clear
5:53 PM 50.0 °F - 10.9 °F 21% 29.98 in 10.0 mi South 10.4 mph - N/A   Clear
6:53 PM 48.9 °F - 12.0 °F 23% 29.98 in 10.0 mi SSW 8.1 mph - N/A   Clear
7:53 PM 48.0 °F - 12.9 °F 24% 29.98 in 10.0 mi South 4.6 mph - N/A   Clear
8:53 PM 46.9 °F - 14.0 °F 27% 29.98 in 10.0 mi South 5.8 mph - N/A   Clear
9:53 PM 45.0 °F - 14.0 °F 29% 29.96 in 10.0 mi Calm Calm - N/A   Clear
10:53 PM 42.1 °F 40.2 °F 15.1 °F 34% 29.95 in 10.0 mi East 3.5 mph - N/A   Clear
11:53 PM 37.9 °F 33.5 °F 17.1 °F 43% 29.93 in 10.0 mi ESE 5.8 mph - N/A   Clear